TimeCDT,TemperatureF,Dew PointF,Humidity,Sea Level PressureIn,VisibilityMPH,Wind Direction,Wind SpeedMPH,Gust SpeedMPH,PrecipitationIn,Events,Conditions,WindDirDegrees,DateUTC
12:15 AM,84.4,77.7,80,29.84,10.0,Calm,Calm,-,N/A,,Clear,0,2013-06-29 05:15:00
12:35 AM,84.4,77.9,81,29.83,10.0,SW,6.9,-,N/A,,Clear,220,2013-06-29 05:35:00
12:55 AM,84.7,77.9,80,29.83,10.0,SW,4.6,-,N/A,,Clear,220,2013-06-29 05:55:00
1:15 AM,84.4,77.9,81,29.82,10.0,SW,3.5,-,N/A,,Clear,230,2013-06-29 06:15:00
1:35 AM,83.8,77.7,82,29.83,10.0,SW,4.6,-,N/A,,Clear,230,2013-06-29 06:35:00
1:55 AM,83.8,77.0,80,29.82,10.0,Calm,Calm,-,N/A,,Clear,0,2013-06-29 06:55:00
2:15 AM,83.7,77.2,81,29.82,10.0,SW,3.5,-,N/A,,Clear,220,2013-06-29 07:15:00
2:35 AM,83.3,77.5,83,29.82,10.0,Calm,Calm,-,N/A,,Clear,0,2013-06-29 07:35:00
2:55 AM,82.8,77.4,84,29.82,10.0,North,-9999.0,-,N/A,,Clear,0,2013-06-29 07:55:00
3:15 AM,83.3,77.4,82,29.81,10.0,North,-9999.0,-,N/A,,Clear,0,2013-06-29 08:15:00
3:35 AM,82.4,77.9,86,29.80,10.0,SSW,6.9,-,N/A,,Clear,200,2013-06-29 08:35:00
3:55 AM,83.1,77.9,84,29.80,10.0,SW,6.9,-,N/A,,Clear,220,2013-06-29 08:55:00
4:15 AM,83.3,77.5,83,29.80,10.0,SW,4.6,-,N/A,,Clear,220,2013-06-29 09:15:00
4:35 AM,83.3,77.5,83,29.80,10.0,SW,4.6,-,N/A,,Clear,230,2013-06-29 09:35:00
4:55 AM,83.1,77.9,84,29.79,10.0,SW,5.8,-,N/A,,Clear,220,2013-06-29 09:55:00
5:15 AM,83.5,77.9,83,29.80,7.0,WSW,6.9,-,N/A,,Clear,240,2013-06-29 10:15:00
5:35 AM,83.5,77.9,83,29.80,10.0,WSW,4.6,-,N/A,,Scattered Clouds,240,2013-06-29 10:35:00
5:55 AM,83.3,77.9,84,29.80,10.0,WSW,5.8,-,N/A,,Scattered Clouds,240,2013-06-29 10:55:00
6:15 AM,83.5,77.4,82,29.81,10.0,WSW,6.9,-,N/A,,Scattered Clouds,240,2013-06-29 11:15:00
6:35 AM,84.2,77.7,81,29.83,10.0,WSW,5.8,-,N/A,,Mostly Cloudy,250,2013-06-29 11:35:00
6:55 AM,84.6,77.4,79,29.82,10.0,WSW,4.6,-,N/A,,Scattered Clouds,240,2013-06-29 11:55:00
7:15 AM,84.7,77.5,79,29.82,10.0,WSW,8.1,-,N/A,,Clear,240,2013-06-29 12:15:00
7:35 AM,85.1,77.4,78,29.82,10.0,WSW,9.2,-,N/A,,Scattered Clouds,240,2013-06-29 12:35:00
7:55 AM,86.4,77.5,75,29.82,10.0,WSW,10.4,16.1,N/A,Thunderstorm,Scattered Clouds,250,2013-06-29 12:55:00
8:15 AM,87.6,77.5,72,29.84,10.0,WSW,18.4,24.2,N/A,,Scattered Clouds,240,2013-06-29 13:15:00
8:35 AM,83.5,72.3,69,29.84,10.0,West,13.8,29.9,N/A,Thunderstorm,Mostly Cloudy,260,2013-06-29 13:35:00
8:55 AM,80.8,72.5,76,29.85,10.0,WNW,16.1,21.9,N/A,Thunderstorm,Mostly Cloudy,290,2013-06-29 13:55:00
9:15 AM,79.3,70.2,73,29.87,10.0,WNW,10.4,19.6,N/A,Thunderstorm,Scattered Clouds,300,2013-06-29 14:15:00
9:35 AM,78.8,70.0,74,29.87,10.0,WSW,10.4,-,N/A,Rain,Light Rain,250,2013-06-29 14:35:00
9:55 AM,76.1,70.9,84,29.86,10.0,WSW,8.1,16.1,N/A,Rain,Light Rain,240,2013-06-29 14:55:00
10:15 AM,75.6,71.8,88,29.86,10.0,West,8.1,-,N/A,Rain,Light Rain,270,2013-06-29 15:15:00
10:35 AM,76.1,72.1,87,29.86,10.0,West,13.8,-,N/A,Rain-Thunderstorm,Light Thunderstorms and Rain,280,2013-06-29 15:35:00
10:55 AM,75.6,71.8,88,29.85,10.0,West,10.4,-,N/A,Rain,Light Rain,260,2013-06-29 15:55:00
11:15 AM,75.6,71.8,88,29.83,10.0,West,6.9,-,N/A,Thunderstorm,Unknown,260,2013-06-29 16:15:00
11:35 AM,76.5,72.3,87,29.82,10.0,WSW,8.1,-,N/A,,Light Drizzle,240,2013-06-29 16:35:00
11:55 AM,77.5,72.0,83,29.80,10.0,SW,10.4,20.7,N/A,,Clear,220,2013-06-29 16:55:00
12:15 PM,79.5,72.9,80,29.79,10.0,WSW,13.8,20.7,N/A,,Clear,240,2013-06-29 17:15:00
12:35 PM,81.7,72.3,73,29.79,10.0,SW,11.5,17.3,N/A,,Clear,230,2013-06-29 17:35:00
12:55 PM,83.3,71.6,68,29.79,10.0,WSW,12.7,18.4,N/A,,Clear,240,2013-06-29 17:55:00
1:15 PM,84.0,72.1,67,29.79,10.0,SW,12.7,18.4,N/A,,Clear,230,2013-06-29 18:15:00
1:35 PM,85.5,74.1,69,29.78,10.0,WSW,12.7,19.6,N/A,,Clear,250,2013-06-29 18:35:00
1:55 PM,85.1,73.4,68,29.79,10.0,WSW,11.5,19.6,N/A,,Clear,240,2013-06-29 18:55:00
2:15 PM,86.0,73.6,66,29.79,10.0,SW,5.8,-,N/A,,Clear,220,2013-06-29 19:15:00
2:35 PM,86.9,72.7,62,29.79,10.0,SW,6.9,-,N/A,,Clear,230,2013-06-29 19:35:00
2:55 PM,89.1,72.7,58,29.78,10.0,SW,5.8,16.1,N/A,,Clear,230,2013-06-29 19:55:00
3:15 PM,89.4,73.4,59,29.77,10.0,WSW,10.4,16.1,N/A,,Clear,250,2013-06-29 20:15:00
3:35 PM,89.4,73.0,58,29.77,10.0,WSW,8.1,-,N/A,,Clear,240,2013-06-29 20:35:00
3:55 PM,89.4,73.0,58,29.76,10.0,WSW,8.1,-,N/A,,Clear,250,2013-06-29 20:55:00
4:15 PM,87.8,74.1,64,29.76,10.0,WSW,4.6,-,N/A,,Clear,240,2013-06-29 21:15:00
4:35 PM,87.8,76.1,68,29.75,10.0,WSW,12.7,18.4,N/A,,Mostly Cloudy,240,2013-06-29 21:35:00
4:55 PM,87.4,76.3,69,29.74,10.0,WSW,9.2,17.3,N/A,,Overcast,240,2013-06-29 21:55:00
5:15 PM,87.4,76.3,69,29.73,10.0,WSW,12.7,23.0,N/A,,Overcast,240,2013-06-29 22:15:00
5:35 PM,88.3,76.1,67,29.73,10.0,WSW,10.4,23.0,N/A,,Mostly Cloudy,240,2013-06-29 22:35:00
5:55 PM,88.0,75.6,66,29.73,10.0,WSW,13.8,19.6,N/A,,Scattered Clouds,250,2013-06-29 22:55:00
6:15 PM,86.0,76.1,72,29.74,10.0,West,9.2,-,N/A,,Scattered Clouds,260,2013-06-29 23:15:00
6:35 PM,86.4,77.0,74,29.73,10.0,WSW,8.1,-,N/A,,Scattered Clouds,250,2013-06-29 23:35:00
6:55 PM,86.0,77.4,75,29.73,10.0,SW,3.5,-,N/A,,Mostly Cloudy,220,2013-06-29 23:55:00
7:15 PM,86.0,77.5,76,29.73,10.0,SW,5.8,-,N/A,,Mostly Cloudy,230,2013-06-30 00:15:00
7:35 PM,85.3,77.5,78,29.73,10.0,SW,6.9,-,N/A,,Overcast,230,2013-06-30 00:35:00
7:55 PM,84.7,77.7,79,29.74,10.0,WSW,5.8,-,N/A,,Mostly Cloudy,240,2013-06-30 00:55:00
8:15 PM,84.7,77.9,80,29.74,10.0,WSW,5.8,-,N/A,,Mostly Cloudy,240,2013-06-30 01:15:00
8:35 PM,84.7,78.3,81,29.75,10.0,WSW,4.6,-,N/A,,Mostly Cloudy,240,2013-06-30 01:35:00
8:55 PM,83.7,78.8,85,29.75,10.0,North,-9999.0,-,N/A,,Scattered Clouds,0,2013-06-30 01:55:00
9:15 PM,83.8,78.8,85,29.76,10.0,Calm,Calm,-,N/A,,Mostly Cloudy,0,2013-06-30 02:15:00
9:35 PM,83.5,79.2,87,29.76,10.0,South,3.5,-,N/A,,Overcast,190,2013-06-30 02:35:00
9:55 PM,83.5,79.2,87,29.76,10.0,SSW,4.6,-,N/A,,Overcast,210,2013-06-30 02:55:00
10:15 PM,82.9,79.2,88,29.77,10.0,SW,3.5,-,N/A,,Scattered Clouds,220,2013-06-30 03:15:00
10:35 PM,82.4,79.0,89,29.76,10.0,SSW,5.8,-,N/A,,Mostly Cloudy,200,2013-06-30 03:35:00
10:55 PM,81.7,78.8,91,29.76,10.0,SSW,3.5,-,N/A,,Scattered Clouds,200,2013-06-30 03:55:00
11:15 PM,81.1,78.4,91,29.76,10.0,SSW,3.5,-,N/A,,Scattered Clouds,200,2013-06-30 04:15:00
11:35 PM,81.0,78.4,92,29.77,10.0,SSW,3.5,-,N/A,,Mostly Cloudy,210,2013-06-30 04:35:00
11:55 PM,81.1,78.3,91,29.76,10.0,SSW,3.5,-,N/A,,Mostly Cloudy,200,2013-06-30 04:55:00